EW2109 Weather Reports


Display with metric or nautical units.
time (UTC)temp
F
wind
direction
speed
MPH
gust
MPH
rain 1hr
in
rain 24hr
in
rain mn
in
humidity
%
barometer
mb
20180218102556 33 128 4.0 0.0 0.00 0.00 0.00 68 1008.4
20180218101056 34 167 4.0 0.0 0.00 0.00 0.00 66 1008.4
20180218095557 34 162 3.0 0.0 0.00 0.00 0.00 67 1008.4
20180218094052 32 143 3.0 0.0 0.00 0.00 0.00 70 1008.3
20180218092551 31 178 1.0 0.0 0.00 0.00 0.00 72 1008.4
20180218091051 32 164 2.0 0.0 0.00 0.00 0.00 70 1008.4
20180218085551 31 172 0.0 0.0 0.00 0.00 0.00 75 1008.5
20180218084051 30 172 0.0 0.0 0.00 0.00 0.00 73 1008.3
20180218082551 31 174 1.0 0.0 0.00 0.00 0.00 75 1008.5
20180218081050 30 227 0.0 0.0 0.00 0.00 0.00 74 1008.5
20180218075551 28 227 2.0 0.0 0.00 0.00 0.00 78 1008.4
20180218074048 29 217 2.0 0.0 0.00 0.00 0.00 78 1008.5
20180218072547 30 199 0.0 0.0 0.00 0.00 0.00 74 1008.3
20180218071045 30 199 1.0 0.0 0.00 0.00 0.00 76 1008.5
20180218065543 30 212 0.0 0.0 0.00 0.00 0.00 76 1008.5
20180218064042 31 212 1.0 0.0 0.00 0.00 0.00 73 1008.5
20180218062541 31 213 0.0 0.0 0.00 0.00 0.00 73 1008.5
20180218061043 30 213 0.0 0.0 0.00 0.00 0.00 74 1008.3
20180218055541 31 213 1.0 0.0 0.00 0.00 0.00 72 1008.2
20180218054039 30 210 0.0 0.0 0.00 0.00 0.00 73 1008.1
20180218052539 31 158 1.0 0.0 0.00 0.00 0.00 72 1008.1
20180218051039 30 206 1.0 0.0 0.00 0.00 0.00 74 1008.2
20180218045535 30 206 1.0 0.0 0.00 0.00 0.00 72 1008.0
20180218044032 32 196 2.0 0.0 0.00 0.00 0.00 70 1007.9
20180218042531 32 172 4.0 0.0 0.00 0.00 0.00 70 1008.0
20180218041031 32 247 0.0 0.0 0.00 0.00 0.00 72 1008.2
20180218035529 32 247 1.0 0.0 0.00 0.00 0.00 72 1008.2
20180218034034 32 192 4.0 0.0 0.00 0.00 0.00 70 1008.2
20180218032527 32 140 2.0 0.0 0.00 0.00 0.00 71 1008.4
20180218031028 31 136 2.0 0.0 0.00 0.00 0.00 73 1008.3
20180218025525 32 93 3.0 0.0 0.00 0.00 0.00 73 1008.4
20180218024023 32 140 3.0 0.0 0.00 0.00 0.00 71 1008.5
20180218022524 32 172 0.0 0.0 0.00 0.00 0.00 73 1008.5
20180218021022 32 172 0.0 0.0 0.00 0.00 0.00 72 1008.4
20180218015520 32 172 0.0 0.0 0.00 0.00 0.00 73 1008.4
20180218014018 32 167 1.0 0.0 0.00 0.00 0.00 74 1008.3
20180218012517 33 167 4.0 0.0 0.00 0.00 0.00 71 1008.4
20180218011015 32 152 1.0 0.0 0.00 0.00 0.00 75 1008.3
20180218005515 32 145 0.0 0.0 0.00 0.00 0.00 74 1008.2
20180218004013 32 145 2.0 0.0 0.00 0.00 0.00 75 1008.3
20180218002511 32 155 1.0 0.0 0.00 0.00 0.00 75 1008.3
20180218001011 32 155 1.0 0.0 0.00 0.00 0.00 76 1008.3
20180217235510 32 88 0.0 0.0 0.00 0.00 0.00 76 1008.4
20180217234011 32 78 1.0 0.0 0.00 0.00 0.00 74 1008.6
20180217232507 32 7 2.0 0.0 0.00 0.00 0.00 74 1008.4
20180217231005 32 14 2.0 0.0 0.00 0.00 0.00 71 1008.5
20180217225503 32 85 1.0 0.0 0.00 0.00 0.01 69 1008.5
20180217224002 33 110 2.0 0.0 0.00 0.00 0.01 67 1008.5
20180217222501 33 103 2.0 0.0 0.00 0.00 0.01 66 1008.4
20180217221000 33 130 2.0 0.0 0.00 0.00 0.01 66 1008.5
20180217215500 33 141 2.0 0.0 0.00 0.00 0.01 69 1008.6
20180217213959 33 110 1.0 0.0 0.00 0.00 0.01 69 1008.5
20180217212459 33 123 2.0 0.0 0.00 0.00 0.01 70 1008.5
20180217211001 34 32 3.0 0.0 0.00 0.00 0.01 69 1008.8
20180217205500 34 32 2.0 0.0 0.00 0.00 0.01 68 1009.0
20180217203959 34 49 2.0 0.0 0.00 0.00 0.01 68 1009.1
20180217202456 33 160 1.0 0.0 0.00 0.00 0.01 65 1009.0
20180217200958 33 148 1.0 0.0 0.00 0.00 0.01 64 1009.2
20180217195458 33 151 1.0 0.0 0.00 0.00 0.01 64 1009.1
20180217193956 34 93 1.0 0.0 0.00 0.00 0.01 64 1009.0
20180217192456 34 73 4.0 0.0 0.00 0.00 0.01 62 1009.2
20180217190957 29 121 1.0 0.0 0.00 0.00 0.01 71 1009.4
20180217185457 30 141 0.0 0.0 0.00 0.00 0.01 67 1009.3
20180217183953 31 141 1.0 0.0 0.00 0.00 0.01 67 1009.3
20180217182456 30 134 2.0 0.0 0.00 0.00 0.01 69 1009.4
20180217180953 29 134 3.0 0.0 0.00 0.00 0.01 67 1009.2
20180217175453 30 171 1.0 0.0 0.00 0.00 0.01 69 1009.3
20180217173952 31 171 3.0 0.0 0.00 0.00 0.01 67 1009.4
20180217172452 30 148 1.0 0.0 0.00 0.00 0.01 69 1009.4
20180217170951 28 171 0.0 0.0 0.00 0.00 0.01 70 1009.3
20180217165454 28 160 1.0 0.0 0.00 0.00 0.01 72 1009.5
20180217163952 26 213 3.0 0.0 0.00 0.00 0.01 74 1009.4
20180217162448 26 248 0.0 0.0 0.00 0.00 0.01 71 1009.3
20180217160948 25 248 1.0 0.0 0.00 0.00 0.01 71 1009.6
20180217155448 27 174 1.0 0.0 0.00 0.00 0.01 71 1009.4
20180217153951 27 287 0.0 0.0 0.00 0.00 0.01 67 1009.2
20180217152450 29 287 2.0 0.0 0.00 0.00 0.01 64 1009.2
20180217150947 30 167 3.0 0.0 0.00 0.00 0.01 61 1009.0
20180217145447 30 155 4.0 0.0 0.00 0.00 0.01 64 1009.1
20180217143942 30 169 2.0 0.0 0.00 0.00 0.01 63 1009.1
20180217142442 31 116 3.0 0.0 0.00 0.00 0.01 61 1009.3
20180217140937 32 147 2.0 0.0 0.00 0.00 0.01 61 1009.3
20180217135434 31 154 2.0 0.0 0.00 0.00 0.01 61 1009.4
20180217133929 32 143 6.0 0.0 0.00 0.00 0.01 58 1009.5
20180217132424 32 147 3.0 0.0 0.00 0.00 0.01 60 1009.7
20180217130919 32 119 4.0 0.0 0.00 0.00 0.01 60 1009.9
20180217125417 32 141 4.0 0.0 0.00 0.00 0.01 60 1009.9
20180217123919 32 128 4.0 0.0 0.00 0.00 0.01 59 1010.0
20180217122419 33 143 5.0 0.0 0.00 0.00 0.01 58 1010.2
20180217120913 33 140 2.0 0.0 0.00 0.00 0.01 57 1010.3
20180217115413 34 145 3.0 0.0 0.00 0.00 0.01 57 1010.4
20180217113910 33 137 1.0 0.0 0.00 0.00 0.01 59 1010.5
20180217112411 33 124 2.0 0.0 0.00 0.00 0.01 59 1010.5
20180217110911 32 90 2.0 0.0 0.00 0.00 0.01 60 1010.4
20180217105408 34 88 3.0 0.0 0.00 0.00 0.00 57 1010.5
20180217103905 34 133 2.0 0.0 0.00 0.00 0.00 58 1010.7